[keps] orb07271.amsat
Ray Hoad
r.hoad at att.net
Fri Sep 28 04:35:19 PDT 2007
SB KEPS @ AMSAT $ORB07271.O
Orbital Elements 07271.OSCAR
HR AMSAT ORBITAL ELEMENTS FOR OSCAR SATELLITES
FROM WA5QGD FORT WORTH,TX September 28, 2007
Send Subscribe/unsubscribe to KEPS at
http://www.amsat.org/mailman/listinfo/keps
BID: ORB07271.O
TO ALL RADIO AMATEURS BT
Satellite: AO-07
Catalog number: 07530
Epoch time: 07271.17170329
Element set: 987
Inclination: 101.5057 deg
RA of node: 306.1161 deg
Eccentricity: 0.0012172
Arg of perigee: 055.5188 deg
Mean anomaly: 304.7029 deg
Mean motion: 12.53572559 rev/day
Decay rate: -2.8e-07 rev/day^2
Epoch rev: 50402
Checksum: 277
Satellite: AO-10
Catalog number: 14129
Epoch time: 07268.11134278
Element set: 0430
Inclination: 026.1220 deg
RA of node: 254.6303 deg
Eccentricity: 0.6061387
Arg of perigee: 059.0307 deg
Mean anomaly: 346.8451 deg
Mean motion: 02.05867591 rev/day
Decay rate: 2.16e-06 rev/day^2
Epoch rev: 18262
Checksum: 278
Satellite: UO-11
Catalog number: 14781
Epoch time: 07270.51182965
Element set: 482
Inclination: 098.1869 deg
RA of node: 295.1634 deg
Eccentricity: 0.0008819
Arg of perigee: 195.9385 deg
Mean anomaly: 164.1577 deg
Mean motion: 14.79582500 rev/day
Decay rate: 4.01e-06 rev/day^2
Epoch rev: 26486
Checksum: 340
Satellite: RS-15
Catalog number: 23439
Epoch time: 07269.88964646
Element set: 0095
Inclination: 064.8148 deg
RA of node: 202.4452 deg
Eccentricity: 0.0155900
Arg of perigee: 172.4799 deg
Mean anomaly: 187.8510 deg
Mean motion: 11.27552719 rev/day
Decay rate: -3.9e-07 rev/day^2
Epoch rev: 52516
Checksum: 338
Satellite: FO-29
Catalog number: 24278
Epoch time: 07269.88901109
Element set: 0632
Inclination: 098.5606 deg
RA of node: 215.9273 deg
Eccentricity: 0.0350649
Arg of perigee: 179.6710 deg
Mean anomaly: 180.4717 deg
Mean motion: 13.52931699 rev/day
Decay rate: -3.2e-07 rev/day^2
Epoch rev: 54865
Checksum: 347
Satellite: SO-33
Catalog number: 25509
Epoch time: 07269.62016711
Element set: 0030
Inclination: 031.4329 deg
RA of node: 012.2525 deg
Eccentricity: 0.0355787
Arg of perigee: 234.1461 deg
Mean anomaly: 122.5625 deg
Mean motion: 14.28175512 rev/day
Decay rate: -8.0e-07 rev/day^2
Epoch rev: 46576
Checksum: 280
Satellite: AO-40
Catalog number: 26609
Epoch time: 07270.25662614
Element set: 941
Inclination: 006.5986 deg
RA of node: 118.6482 deg
Eccentricity: 0.7950701
Arg of perigee: 007.8761 deg
Mean anomaly: 359.8571 deg
Mean motion: 01.25585198 rev/day
Decay rate: -2.3e-07 rev/day^2
Epoch rev: 3172
Checksum: 323
Satellite: VO-52
Catalog number: 28650
Epoch time: 07270.71376381
Element set: 738
Inclination: 097.8244 deg
RA of node: 339.0910 deg
Eccentricity: 0.0026045
Arg of perigee: 280.2326 deg
Mean anomaly: 079.5934 deg
Mean motion: 14.81361529 rev/day
Decay rate: 2.79e-06 rev/day^2
Epoch rev: 12959
Checksum: 328
Satellite: PO-63
Catalog number: 29712
Epoch time: 07271.16042932
Element set: 770
Inclination: 097.9129 deg
RA of node: 328.8480 deg
Eccentricity: 0.0014947
Arg of perigee: 151.1581 deg
Mean anomaly: 209.0470 deg
Mean motion: 14.79836422 rev/day
Decay rate: 5.19e-06 rev/day^2
Epoch rev: 3856
Checksum: 320
/EX
SB KEPS @ AMSAT $ORB07271.D
Orbital Elements 07271.MICROS
HR AMSAT ORBITAL ELEMENTS FOR THE MICROSATS
FROM WA5QGD FORT WORTH,TX September 28, 2007
Send Subscribe/unsubscribe to KEPS at
http://www.amsat.org/mailman/listinfo/keps
BID: ORB07271.D
TO ALL RADIO AMATEURS BT
Satellite: AO-16
Catalog number: 20439
Epoch time: 07271.16973215
Element set: 142
Inclination: 098.2050 deg
RA of node: 260.0946 deg
Eccentricity: 0.0009971
Arg of perigee: 237.3368 deg
Mean anomaly: 122.6865 deg
Mean motion: 14.31770970 rev/day
Decay rate: 8.0e-08 rev/day^2
Epoch rev: 92328
Checksum: 305
Satellite: LO-19
Catalog number: 20442
Epoch time: 07271.05120993
Element set: 67
Inclination: 098.1847 deg
RA of node: 269.1766 deg
Eccentricity: 0.0010986
Arg of perigee: 236.2832 deg
Mean anomaly: 123.7321 deg
Mean motion: 14.32010618 rev/day
Decay rate: -5.7e-07 rev/day^2
Epoch rev: 92341
Checksum: 293
Satellite: AO-27
Catalog number: 22825
Epoch time: 07269.43068558
Element set: 0790
Inclination: 098.3434 deg
RA of node: 234.9578 deg
Eccentricity: 0.0008011
Arg of perigee: 329.5217 deg
Mean anomaly: 030.5487 deg
Mean motion: 14.29218427 rev/day
Decay rate: 3.1e-07 rev/day^2
Epoch rev: 72995
Checksum: 329
Satellite: IO-26
Catalog number: 22826
Epoch time: 07269.46056494
Element set: 0489
Inclination: 098.3369 deg
RA of node: 236.0151 deg
Eccentricity: 0.0008671
Arg of perigee: 326.5117 deg
Mean anomaly: 033.5511 deg
Mean motion: 14.29465079 rev/day
Decay rate: 1.2e-07 rev/day^2
Epoch rev: 73004
Checksum: 307
Satellite: PO-28
Catalog number: 22829
Epoch time: 07270.48636181
Element set: 763
Inclination: 098.3249 deg
RA of node: 238.1483 deg
Eccentricity: 0.0008939
Arg of perigee: 293.4466 deg
Mean anomaly: 066.5764 deg
Mean motion: 14.30166824 rev/day
Decay rate: -1.0e-07 rev/day^2
Epoch rev: 73043
Checksum: 328
Satellite: GO-32
Catalog number: 25397
Epoch time: 07269.75487627
Element set: 0413
Inclination: 098.4053 deg
RA of node: 312.4718 deg
Eccentricity: 0.0000563
Arg of perigee: 344.0260 deg
Mean anomaly: 016.0906 deg
Mean motion: 14.23130004 rev/day
Decay rate: -2.05e-06 rev/day^2
Epoch rev: 47860
Checksum: 280
Satellite: MO-46
Catalog number: 26548
Epoch time: 07270.33599110
Element set: 906
Inclination: 064.5556 deg
RA of node: 226.6436 deg
Eccentricity: 0.0002913
Arg of perigee: 185.9496 deg
Mean anomaly: 174.1560 deg
Mean motion: 14.83176162 rev/day
Decay rate: -2.0e-08 rev/day^2
Epoch rev: 37868
Checksum: 324
Satellite: NO-44
Catalog number: 26931
Epoch time: 07269.39882289
Element set: 0694
Inclination: 067.0496 deg
RA of node: 246.7689 deg
Eccentricity: 0.0006615
Arg of perigee: 251.1985 deg
Mean anomaly: 108.8399 deg
Mean motion: 14.29495847 rev/day
Decay rate: -4.9e-07 rev/day^2
Epoch rev: 31256
Checksum: 377
Satellite: SO-50
Catalog number: 27607
Epoch time: 07269.67302930
Element set: 0418
Inclination: 064.5585 deg
RA of node: 136.8984 deg
Eccentricity: 0.0066264
Arg of perigee: 334.3137 deg
Mean anomaly: 025.4657 deg
Mean motion: 14.71288339 rev/day
Decay rate: 1.7e-07 rev/day^2
Epoch rev: 25605
Checksum: 326
Satellite: CO-55
Catalog number: 27844
Epoch time: 07269.67337479
Element set: 0131
Inclination: 098.7205 deg
RA of node: 276.5964 deg
Eccentricity: 0.0010100
Arg of perigee: 154.0682 deg
Mean anomaly: 206.0995 deg
Mean motion: 14.20532867 rev/day
Decay rate: 3.0e-07 rev/day^2
Epoch rev: 21988
Checksum: 319
Satellite: CO-57
Catalog number: 27848
Epoch time: 07269.56608946
Element set: 88
Inclination: 098.7204 deg
RA of node: 275.6518 deg
Eccentricity: 0.0009947
Arg of perigee: 158.1202 deg
Mean anomaly: 202.0420 deg
Mean motion: 14.20349227 rev/day
Decay rate: 2.2e-07 rev/day^2
Epoch rev: 21984
Checksum: 320
Satellite: AO-51
Catalog number: 28375
Epoch time: 07271.15642653
Element set: 921
Inclination: 098.1039 deg
RA of node: 305.1247 deg
Eccentricity: 0.0082935
Arg of perigee: 230.6178 deg
Mean anomaly: 128.7644 deg
Mean motion: 14.40580767 rev/day
Decay rate: 6.0e-08 rev/day^2
Epoch rev: 17053
Checksum: 306
Satellite: CO-56
Catalog number: 28941
Epoch time: 07269.96428576
Element set: 0588
Inclination: 098.1185 deg
RA of node: 342.6222 deg
Eccentricity: 0.0211439
Arg of perigee: 271.4852 deg
Mean anomaly: 086.2172 deg
Mean motion: 15.43433177 rev/day
Decay rate: 1.0385e-04 rev/day^2
Epoch rev: 08911
Checksum: 337
Satellite: HO-59
Catalog number: 29484
Epoch time: 07270.88290897
Element set: 719
Inclination: 098.2701 deg
RA of node: 336.7941 deg
Eccentricity: 0.0180842
Arg of perigee: 255.1689 deg
Mean anomaly: 102.9439 deg
Mean motion: 15.58464677 rev/day
Decay rate: 2.2991e-04 rev/day^2
Epoch rev: 5703
Checksum: 371
Satellite: NO-61
Catalog number: 29664
Epoch time: 07271.22756046
Element set: 510
Inclination: 051.6284 deg
RA of node: 266.4352 deg
Eccentricity: 0.0011605
Arg of perigee: 038.4025 deg
Mean anomaly: 321.7808 deg
Mean motion: 15.99558362 rev/day
Decay rate: 4.8955e-04 rev/day^2
Epoch rev: 4460
Checksum: 313
Satellite: CP4
Catalog number: 31122
Epoch time: 07271.13468168
Element set: 146
Inclination: 098.0762 deg
RA of node: 341.0407 deg
Eccentricity: 0.0086586
Arg of perigee: 066.5848 deg
Mean anomaly: 294.4389 deg
Mean motion: 14.55035810 rev/day
Decay rate: 5.51e-06 rev/day^2
Epoch rev: 2382
Checksum: 305
Satellite: CP3
Catalog number: 31128
Epoch time: 07270.66482719
Element set: 139
Inclination: 098.0745 deg
RA of node: 339.7723 deg
Eccentricity: 0.0103877
Arg of perigee: 069.6398 deg
Mean anomaly: 291.5922 deg
Mean motion: 14.51867387 rev/day
Decay rate: -4.7e-07 rev/day^2
Epoch rev: 2369
Checksum: 346
Satellite: LIBERT
Catalog number: 31129
Epoch time: 07271.13737613
Element set: 396
Inclination: 098.0747 deg
RA of node: 340.2415 deg
Eccentricity: 0.0103890
Arg of perigee: 067.9659 deg
Mean anomaly: 293.2497 deg
Mean motion: 14.51960373 rev/day
Decay rate: 3.39e-06 rev/day^2
Epoch rev: 2374
Checksum: 314
/EX
SB KEPS @ AMSAT $ORB07271.W
Orbital Elements 07271.WEATHER
HR AMSAT ORBITAL ELEMENTS FOR WEATHER SATELLITES
FROM WA5QGD FORT WORTH,TX September 28, 2007
Send Subscribe/unsubscribe to KEPS at
http://www.amsat.org/mailman/listinfo/keps
BID: ORB07271.W
TO ALL RADIO AMATEURS BT
Satellite: NOAA-10
Catalog number: 16969
Epoch time: 07269.59840291
Element set: 0827
Inclination: 098.7445 deg
RA of node: 286.8337 deg
Eccentricity: 0.0011557
Arg of perigee: 230.7215 deg
Mean anomaly: 129.2962 deg
Mean motion: 14.27334688 rev/day
Decay rate: 1.3e-07 rev/day^2
Epoch rev: 09369
Checksum: 343
Satellite: NOAA-11
Catalog number: 19531
Epoch time: 07269.82472896
Element set: 0856
Inclination: 098.8108 deg
RA of node: 357.7149 deg
Eccentricity: 0.0012395
Arg of perigee: 100.1320 deg
Mean anomaly: 260.1255 deg
Mean motion: 14.14850700 rev/day
Decay rate: -2.19e-06 rev/day^2
Epoch rev: 98052
Checksum: 305
